| time (UTC) | temp F | wind direction | speed MPH | gust MPH | rain 1hr in | rain 24hr in | rain mn in | humidity % | barometer mb |
| 20260906090114 | 61 | 63 | 3.0 | 5.0 | 0.00 | 0.00 | 0.00 | 94 | 1016.7 |
| 20260906084609 | 60 | 101 | 1.0 | 3.0 | 0.00 | 0.00 | 0.00 | 94 | 1016.7 |
| 20260906083057 | 60 | 132 | 0.0 | 1.0 | 0.00 | 0.00 | 0.00 | 94 | 1016.5 |
| 20260906081556 | 61 | 124 | 0.0 | 3.0 | 0.00 | 0.00 | 0.00 | 94 | 1016.2 |
| 20260906080057 | 61 | 95 | 0.0 | 3.0 | 0.00 | 0.00 | 0.00 | 94 | 1016.1 |
| 20260906074559 | 62 | 91 | 2.0 | 5.0 | 0.00 | 0.00 | 0.00 | 94 | 1016.1 |
| 20260906073058 | 62 | 74 | 1.0 | 3.0 | 0.00 | 0.00 | 0.00 | 93 | 1016.0 |
| 20260906071551 | 62 | 49 | 2.0 | 3.0 | 0.00 | 0.00 | 0.00 | 93 | 1016.1 |
| 20260906070105 | 62 | 53 | 2.0 | 4.0 | 0.00 | 0.00 | 0.00 | 93 | 1016.1 |
| 20260906064550 | 63 | 32 | 1.0 | 5.0 | 0.00 | 0.00 | 0.00 | 92 | 1016.0 |
| 20260906063049 | 64 | 46 | 7.0 | 10.0 | 0.00 | 0.00 | 0.00 | 93 | 1016.1 |
| 20260906061600 | 63 | 16 | 5.0 | 7.0 | 0.00 | 0.00 | 0.00 | 94 | 1016.2 |
| 20260906060044 | 59 | 138 | 0.0 | 1.0 | 0.00 | 0.00 | 0.00 | 94 | 1016.1 |
| 20260906054542 | 59 | 139 | 0.0 | 0.0 | 0.00 | 0.00 | 0.00 | 94 | 1016.0 |
| 20260906053044 | 59 | 139 | 0.0 | 1.0 | 0.00 | 0.00 | 0.00 | 94 | 1015.8 |
| 20260906051539 | 60 | 138 | 0.0 | 1.0 | 0.00 | 0.00 | 0.00 | 93 | 1015.7 |
| 20260906050048 | 60 | 138 | 0.0 | 1.0 | 0.00 | 0.00 | 0.00 | 93 | 1015.8 |
| 20260906044536 | 60 | 138 | 0.0 | 1.0 | 0.00 | 0.00 | 0.00 | 92 | 1015.8 |
| 20260906043042 | 61 | 138 | 0.0 | 1.0 | 0.00 | 0.00 | 0.00 | 91 | 1015.8 |
| 20260906041533 | 62 | 151 | 0.0 | 1.0 | 0.00 | 0.00 | 0.00 | 90 | 1015.6 |
| 20260906040027 | 63 | 138 | 0.0 | 1.0 | 0.00 | 0.00 | 0.00 | 87 | 1015.5 |
| 20260906034528 | 64 | 139 | 0.0 | 9.0 | 0.00 | 0.00 | 0.00 | 85 | 1015.4 |
| 20260906033025 | 64 | 49 | 4.0 | 9.0 | 0.00 | 0.00 | 0.00 | 84 | 1015.3 |
| 20260906031524 | 65 | 43 | 4.0 | 10.0 | 0.00 | 0.00 | 0.00 | 83 | 1015.3 |
| 20260906030023 | 65 | 60 | 3.0 | 7.0 | 0.00 | 0.00 | 0.00 | 83 | 1015.4 |
| 20260906024522 | 66 | 118 | 2.0 | 7.0 | 0.00 | 0.00 | 0.00 | 81 | 1015.4 |
| 20260906023022 | 67 | 82 | 2.0 | 9.0 | 0.00 | 0.00 | 0.00 | 82 | 1015.5 |
| 20260906021521 | 68 | 43 | 10.0 | 12.0 | 0.00 | 0.00 | 0.00 | 84 | 1015.3 |
| 20260906020021 | 68 | 36 | 13.0 | 14.0 | 0.00 | 0.00 | 0.00 | 83 | 1015.2 |
| 20260906014526 | 68 | 36 | 14.0 | 17.0 | 0.00 | 0.00 | 0.00 | 85 | 1015.1 |
| 20260906013017 | 69 | 40 | 13.0 | 16.0 | 0.00 | 0.00 | 0.00 | 85 | 1014.9 |
| 20260906011518 | 69 | 37 | 15.0 | 17.0 | 0.00 | 0.00 | 0.00 | 81 | 1014.8 |
| 20260906010016 | 69 | 34 | 14.0 | 17.0 | 0.00 | 0.00 | 0.00 | 84 | 1014.6 |
| 20260906004515 | 69 | 26 | 15.0 | 18.0 | 0.00 | 0.00 | 0.00 | 88 | 1014.6 |
| 20260906003014 | 69 | 32 | 16.0 | 18.0 | 0.00 | 0.00 | 0.00 | 86 | 1014.8 |
| 20260906001514 | 68 | 13 | 14.0 | 19.0 | 0.00 | 0.00 | 0.00 | 88 | 1014.8 |
| 20260906000014 | 69 | 23 | 14.0 | 16.0 | 0.00 | 0.00 | 0.00 | 87 | 1014.8 |
| 20260905234512 | 68 | 15 | 13.0 | 15.0 | 0.00 | 0.00 | 0.00 | 82 | 1014.8 |
| 20260905233013 | 69 | 5 | 14.0 | 16.0 | 0.00 | 0.00 | 0.00 | 82 | 1014.8 |
| 20260905231514 | 69 | 19 | 14.0 | 16.0 | 0.00 | 0.00 | 0.00 | 79 | 1014.8 |
| 20260905230014 | 69 | 8 | 14.0 | 17.0 | 0.00 | 0.00 | 0.00 | 80 | 1014.9 |
| 20260905224509 | 69 | 348 | 13.0 | 17.0 | 0.00 | 0.00 | 0.00 | 79 | 1014.8 |
| 20260905223008 | 69 | 11 | 13.0 | 16.0 | 0.00 | 0.00 | 0.00 | 82 | 1014.7 |
| 20260905221507 | 69 | 13 | 13.0 | 16.0 | 0.00 | 0.00 | 0.00 | 78 | 1014.8 |
| 20260905220007 | 69 | 23 | 15.0 | 18.0 | 0.00 | 0.00 | 0.00 | 74 | 1014.8 |
| 20260905214507 | 70 | 26 | 17.0 | 19.0 | 0.00 | 0.00 | 0.00 | 70 | 1014.8 |
| 20260905213005 | 70 | 12 | 16.0 | 19.0 | 0.00 | 0.00 | 0.00 | 76 | 1014.7 |
| 20260905211504 | 70 | 13 | 16.0 | 19.0 | 0.00 | 0.00 | 0.00 | 75 | 1014.8 |
| 20260905210004 | 70 | 13 | 16.0 | 20.0 | 0.00 | 0.00 | 0.00 | 73 | 1014.6 |
| 20260905204503 | 70 | 23 | 16.0 | 19.0 | 0.00 | 0.00 | 0.00 | 76 | 1014.6 |
| 20260905203001 | 70 | 16 | 16.0 | 19.0 | 0.00 | 0.00 | 0.00 | 79 | 1014.5 |
| 20260905201501 | 70 | 20 | 14.0 | 17.0 | 0.00 | 0.00 | 0.00 | 81 | 1014.6 |
| 20260905200101 | 70 | 11 | 14.0 | 16.0 | 0.00 | 0.00 | 0.00 | 79 | 1014.7 |
| 20260905194559 | 70 | 330 | 10.0 | 14.0 | 0.00 | 0.00 | 0.00 | 85 | 1014.8 |
| 20260905193058 | 70 | 8 | 11.0 | 14.0 | 0.00 | 0.00 | 0.00 | 85 | 1014.7 |
| 20260905191600 | 70 | 337 | 11.0 | 12.0 | 0.00 | 0.00 | 0.00 | 84 | 1014.7 |
| 20260905184601 | 70 | 335 | 9.0 | 11.0 | 0.00 | 0.00 | 0.00 | 84 | 1015.0 |
| 20260905183107 | 70 | 328 | 8.0 | 11.0 | 0.00 | 0.00 | 0.00 | 86 | 1015.1 |
| 20260905181558 | 70 | 325 | 7.0 | 11.0 | 0.00 | 0.00 | 0.00 | 86 | 1015.0 |
| 20260905180052 | 70 | 332 | 8.0 | 10.0 | 0.00 | 0.00 | 0.00 | 85 | 1015.0 |
| 20260905174551 | 69 | 332 | 8.0 | 11.0 | 0.00 | 0.00 | 0.00 | 87 | 1014.7 |
| 20260905173049 | 69 | 328 | 8.0 | 12.0 | 0.00 | 0.00 | 0.00 | 85 | 1014.9 |
| 20260905171547 | 70 | 323 | 6.0 | 9.0 | 0.00 | 0.00 | 0.00 | 85 | 1015.0 |
| 20260905170046 | 70 | 335 | 6.0 | 8.0 | 0.00 | 0.00 | 0.00 | 83 | 1014.9 |
| 20260905164544 | 69 | 325 | 7.0 | 8.0 | 0.00 | 0.02 | 0.00 | 84 | 1014.9 |
| 20260905163043 | 70 | 326 | 6.0 | 8.0 | 0.00 | 0.02 | 0.00 | 84 | 1014.9 |
| 20260905161542 | 70 | 316 | 4.0 | 7.0 | 0.00 | 0.02 | 0.00 | 82 | 1015.0 |
| 20260905160041 | 70 | 302 | 4.0 | 7.0 | 0.00 | 0.02 | 0.00 | 82 | 1014.9 |
| 20260905154542 | 69 | 317 | 4.0 | 6.0 | 0.00 | 0.02 | 0.00 | 83 | 1014.9 |
| 20260905153052 | 69 | 330 | 3.0 | 5.0 | 0.00 | 0.02 | 0.00 | 82 | 1014.9 |
| 20260905151542 | 70 | 335 | 4.0 | 6.0 | 0.00 | 0.02 | 0.00 | 81 | 1014.8 |
| 20260905150038 | 70 | 20 | 6.0 | 8.0 | 0.00 | 0.02 | 0.00 | 73 | 1014.7 |
| 20260905144537 | 70 | 57 | 4.0 | 8.0 | 0.00 | 0.02 | 0.00 | 75 | 1014.7 |
| 20260905143037 | 70 | 45 | 0.0 | 5.0 | 0.00 | 0.02 | 0.00 | 77 | 1014.6 |
| 20260905141532 | 69 | 47 | 3.0 | 6.0 | 0.00 | 0.02 | 0.00 | 77 | 1014.5 |
| 20260905140031 | 69 | 58 | 4.0 | 6.0 | 0.00 | 0.02 | 0.00 | 78 | 1014.5 |
| 20260905134526 | 68 | 43 | 0.0 | 2.0 | 0.00 | 0.04 | 0.00 | 83 | 1014.7 |
| 20260905133030 | 66 | 68 | 0.0 | 2.0 | 0.00 | 0.04 | 0.00 | 86 | 1014.7 |
| 20260905131531 | 64 | 32 | 1.0 | 3.0 | 0.00 | 0.04 | 0.00 | 90 | 1014.7 |
| 20260905130034 | 63 | 142 | 0.0 | 2.0 | 0.00 | 0.04 | 0.00 | 92 | 1014.7 |
| 20260905124521 | 62 | 43 | 0.0 | 4.0 | 0.00 | 0.04 | 0.00 | 93 | 1014.7 |
| 20260905123020 | 61 | 136 | 0.0 | 1.0 | 0.00 | 0.04 | 0.00 | 93 | 1014.7 |
| 20260905121519 | 60 | 134 | 0.0 | 0.0 | 0.00 | 0.04 | 0.00 | 93 | 1014.7 |
| 20260905120018 | 60 | 134 | 0.0 | 0.0 | 0.00 | 0.04 | 0.00 | 94 | 1014.6 |
| 20260905114518 | 60 | 134 | 0.0 | 0.0 | 0.00 | 0.04 | 0.00 | 94 | 1014.7 |
| 20260905113016 | 60 | 134 | 0.0 | 0.0 | 0.00 | 0.04 | 0.00 | 94 | 1014.5 |
| 20260905111513 | 61 | 134 | 0.0 | 0.0 | 0.00 | 0.04 | 0.00 | 93 | 1014.4 |
| 20260905110011 | 61 | 134 | 0.0 | 0.0 | 0.00 | 0.04 | 0.00 | 93 | 1014.1 |
| 20260905104506 | 62 | 134 | 0.0 | 0.0 | 0.00 | 0.04 | 0.00 | 92 | 1014.1 |
| 20260905103007 | 63 | 134 | 0.0 | 1.0 | 0.00 | 0.04 | 0.00 | 90 | 1013.9 |
| 20260905101503 | 63 | 72 | 0.0 | 5.0 | 0.00 | 0.04 | 0.00 | 89 | 1013.9 |
| 20260905100002 | 63 | 46 | 2.0 | 3.0 | 0.00 | 0.04 | 0.00 | 90 | 1013.7 |
| 20260905094601 | 63 | 136 | 0.0 | 0.0 | 0.00 | 0.04 | 0.00 | 90 | 1013.9 |
| 20260905093100 | 64 | 136 | 0.0 | 2.0 | 0.00 | 0.04 | 0.00 | 90 | 1013.7 |
| 20260905091603 | 64 | 236 | 0.0 | 2.0 | 0.00 | 0.04 | 0.00 | 90 | 1013.6 |